This demonstration page uses our WeatherBlox Daily Observations layout. Learn more.

Left ArrowRight Arrow

40.97296, -117.73568

Hourly Observations for August 10, 2022

Temp ( °F °C ) Dew Point ( °F °C ) Humidity (%) Winds ( mph kmh ) Pressure ( in mb ) Visibility ( mi km ) Precip ( " mm )
12:56 am 00:56 Cloudy 66 18.9 61 16.1 84 84 NE 8 13 30.02 1017 10 16 0.00 0.00
1:56 am 01:56 Mostly Clear 66 18.9 61 16.1 84 84 NE 8 13 29.99 1016 10 16 0.01 0.13
2:56 am 02:56 Mostly Clear 65 18.3 61 16.1 87 87 E 8 13 29.99 1016 10 16 0.00 0.00
3:56 am 03:56 Clear 65 18.3 61 16.1 87 87 SSE 3 6 29.98 1015 10 16 0.00 0.00
4:56 am 04:56 Clear 64 17.8 60 15.6 87 87 ESE 6 9 30.01 1016 10 16 0.00 0.00
5:56 am 05:56 Partly Cloudy 64 17.8 60 15.6 87 87 ENE 8 13 30.04 1017 10 16 0.00 0.00
6:56 am 06:56 Partly Cloudy 64 17.8 61 16.1 90 90 E 10 17 30.05 1018 10 16 0.00 0.00
7:56 am 07:56 Mostly Cloudy 67 19.4 61 16.1 81 81 E 6 9 30.06 1018 10 16 0.00 0.00
8:56 am 08:56 Partly Cloudy 72 22.2 61 16.1 68 68 NE 7 11 30.06 1018 10 16 0.00 0.00
9:56 am 09:56 Partly Cloudy 74 23.3 62 16.7 66 66 VRB 5 7 30.06 1018 10 16 0.00 0.00
10:56 am 10:56 Mostly Sunny 78 25.6 62 16.7 58 58 VRB 6 9 30.06 1018 10 16 0.00 0.00
11:56 am 11:56 undefined 82 27.8 60 15.6 47 47 undefined N/A 30.04 1017 N/A 0.00 0.00
12:56 pm 12:56 undefined N/A N/A N/A undefined N/A 30.28 1025 N/A 0.00 0.00
1:56 pm 13:56 Partly Cloudy 84 28.9 59 15 43 43 Calm 30.00 1016 10 16 0.00 0.00
2:56 pm 14:56 Mostly Sunny 86 30 57 13.9 37 37 S 6 9 29.98 1015 10 16 0.00 0.00
3:56 pm 15:56 Mostly Sunny 86 30 56 13.3 36 36 Calm 29.96 1015 10 16 0.00 0.00
4:56 pm 16:56 Mostly Sunny 90 32.2 54 12.2 30 30 SE 6 9 29.94 1014 10 16 0.00 0.00
5:56 pm 17:56 Sunny 90 32.2 52 11.1 27 27 Calm 29.93 1014 10 16 0.00 0.00
6:56 pm 18:56 Sunny 86 30 55 12.8 35 35 NNE 9 15 29.94 1014 10 16 0.00 0.00
7:56 pm 19:56 Cloudy 83 28.3 57 13.9 41 41 NNE 7 11 29.96 1014 10 16 0.00 0.00
8:56 pm 20:56 Mostly Clear 76 24.4 62 16.7 62 62 NNE 13 20 29.97 1015 10 16 0.01 0.25
9:34 pm 21:34 Mostly Clear with Thunderstorms 76 24.4 59 15 56 56 NE 15 24 29.85 1011 10 16 0.00 0.00
9:56 pm 21:56 Windy with Storms Likely 69 20.6 60 15.6 73 73 NW 24 39 30.01 1016 8 13 0.01 0.13
10:03 pm 22:03 Cloudy with Thunderstorms 71 21.7 59 15 66 66 NNW 8 13 29.91 1013 8 13 0.02 0.51
10:21 pm 22:21 Mostly Cloudy with Nearby Thunderstorms 70 21.1 60 15.6 71 71 N 12 19 29.93 1013 10 16 0.02 0.51
10:30 pm 22:30 Mostly Cloudy with Thunderstorms 70 21.1 61 16.1 73 73 NNE 9 15 29.93 1013 10 16 0.02 0.51
10:45 pm 22:45 Mostly Cloudy 71 21.7 62 16.7 73 73 NNE 10 17 29.92 1013 10 16 0.02 0.51
10:56 pm 22:56 Partly Cloudy 71 21.7 62 16.7 73 73 NE 14 22 30.01 1016 10 16 0.02 0.51
11:12 pm 23:12 Partly Cloudy with Nearby Thunderstorms 72 22.2 61 16.1 68 68 E 10 17 29.91 1013 10 16 0.00 0.00
11:28 pm 23:28 Mostly Cloudy with Thunderstorms 72 22.2 60 15.6 66 66 SW 13 20 29.95 1014 10 16 0.00 0.00
11:40 pm 23:40 Cloudy with Nearby Thunderstorms 69 20.6 60 15.6 73 73 WSW 16 26 29.99 1016 9 14 0.01 0.13
11:56 pm 23:56 Cloudy with Nearby Thunderstorms 64 17.8 61 16.1 90 90 WNW 5 7 30.07 1018 10 16 0.04 1.02

Powered by AerisWeather